[[{"header":{"parameterUnit":"m.s-1","parameterCategory":2,"la1":30.2991,"la2":30.254,"lo1":-89.0895,"lo2":-89.0444,"dy":0.0017,"dx":0.0017,"nx":28,"ny":28,"refTime":"2024-07-30T03:00:00:Z","depth":"0","parameterNumber":2,"parameterNumberName":"U-component_of_CURRENTS"},"data":[0,0,0,0,0,0,0,0,0,0,0,0,0,0,0,0,0,0,0,0,0,0,0,0,0,0,0,0,0,0,0,0,0,0,0,0,0,0,0,0,0,0,0,0,0,0,0,0,0,0,0,0,0,0,0,0,0,0,-0.1716,-0.1716,0,-0.1689,-0.1688,-0.1688,-0.1617,-0.1616,-0.1615,-0.1614,-0.1585,-0.1585,-0.1586,0,0,0,0,0,0,0,0,0,0,0,0,0,-0.1661,-0.1662,-0.1716,-0.1716,-0.1716,-0.1689,-0.1688,-0.1688,-0.1617,-0.1616,-0.1614,-0.1613,-0.1585,-0.1585,-0.1586,0,0,0,0,0,0,0,0,0,0,0,0,0,-0.1661,-0.1663,-0.1716,-0.168,-0.1677,-0.1689,-0.1688,-0.1687,-0.1618,-0.1616,-0.1614,-0.1612,-0.1585,-0.1585,-0.1586,-0.1625,0,0,-0.1588,-0.1588,0,0,0,0,0,0,0,0,-0.1661,-0.1663,-0.1685,-0.1683,-0.1679,-0.1658,-0.1658,-0.1668,-0.1618,-0.1637,-0.1614,-0.1612,-0.1613,-0.1611,-0.1605,-0.1624,-0.1622,-0.1588,-0.1588,-0.1588,-0.1588,0,0,0,0,0,0,0,-0.1661,-0.1663,-0.1702,-0.1686,-0.1682,-0.165,-0.1648,-0.1659,-0.1632,-0.1635,-0.1631,-0.1634,-0.161,-0.1605,-0.1604,-0.1622,-0.1588,-0.1588,-0.1588,-0.1589,-0.1618,-0.1618,0,0,0,0,0,0,-0.1677,-0.1664,-0.1703,-0.1701,-0.1669,-0.1653,-0.165,-0.1664,-0.1632,-0.1627,-0.1635,-0.163,-0.1605,-0.1603,-0.1603,-0.1615,-0.1588,-0.1589,-0.1589,-0.1617,-0.1618,-0.1618,0,0,0,0,0,0,-0.1676,-0.1681,-0.1704,-0.1684,-0.1685,-0.1656,-0.1671,-0.1664,-0.1658,-0.1633,-0.1626,-0.1637,-0.1603,-0.1602,-0.1614,-0.1614,-0.1589,-0.1589,-0.1617,-0.1617,-0.1618,-0.1661,0,0,0,0,0,0,-0.1674,-0.1681,-0.1697,-0.1686,-0.1687,-0.1729,-0.1673,-0.1665,-0.1664,-0.1658,-0.1633,-0.1628,-0.1602,-0.1614,-0.1615,-0.1615,-0.159,-0.1616,-0.1617,-0.1618,-0.1659,-0.1663,-0.1666,0,0,0,0,0,-0.1673,-0.1711,-0.1698,-0.1702,-0.1709,-0.1731,-0.1729,-0.1699,-0.1667,-0.1682,-0.1654,-0.1628,-0.1619,-0.1616,-0.1617,-0.1616,-0.1616,-0.1617,-0.1618,-0.1657,-0.1662,-0.1666,0,0,0,0,0,0,-0.1702,-0.1708,-0.1692,-0.1732,-0.1736,-0.172,-0.1734,-0.1711,-0.1701,-0.1687,-0.1651,-0.1646,-0.165,-0.1638,-0.1635,-0.1626,-0.1607,-0.1609,-0.1637,-0.1641,-0.1645,-0.1634,-0.159,0,0,0,0,0,-0.1716,-0.1739,-0.1741,-0.1771,-0.1778,-0.1756,-0.1759,-0.174,-0.1729,-0.1721,-0.1701,-0.1675,-0.1658,-0.1654,-0.1644,-0.1658,-0.1578,-0.1653,-0.1656,-0.166,-0.1651,-0.1577,-0.1573,-0.1622,-0.1622,-0.1622,0,0,-0.1731,-0.1742,-0.1751,-0.1778,-0.1774,-0.1778,-0.1753,-0.1768,-0.1756,-0.1724,-0.1711,-0.1697,-0.1666,-0.1665,-0.1665,-0.1654,-0.1588,-0.1661,-0.1664,-0.1653,-0.1578,-0.1573,-0.1568,-0.1622,-0.1622,-0.1622,0,0,-0.1757,-0.1788,-0.1798,-0.1809,-0.1817,-0.1812,-0.1821,-0.1813,-0.1797,-0.1799,-0.1755,-0.1743,-0.1734,-0.1699,-0.168,-0.1705,-0.1614,-0.1705,-0.1714,-0.1644,-0.1639,-0.1633,-0.145,-0.1429,-0.1704,-0.1704,-0.1704,0,-0.177,-0.1778,-0.1808,-0.1816,-0.1814,-0.1828,-0.1821,-0.1826,-0.1817,-0.1798,-0.18,-0.1747,-0.1739,-0.1698,-0.1709,-0.1711,-0.1623,-0.17,-0.1647,-0.164,-0.1634,-0.1449,-0.1424,-0.1706,-0.1706,-0.1706,-0.1706,0,-0.1776,-0.1789,-0.1806,-0.181,-0.1827,-0.1838,-0.1844,-0.1855,-0.1843,-0.1821,-0.1796,-0.1783,-0.1738,-0.1744,-0.174,-0.1694,-0.1622,-0.1661,-0.1632,-0.1631,-0.1435,-0.1409,-0.1709,-0.1709,-0.1708,-0.1707,0,0,-0.1775,-0.1798,-0.1799,-0.1784,-0.1816,-0.1823,-0.1837,-0.1828,-0.1798,-0.1813,-0.1753,-0.1763,-0.1747,-0.1726,-0.1713,-0.1676,-0.155,-0.1662,-0.1657,-0.1471,-0.1301,-0.1237,-0.12,-0.1589,-0.1587,-0.1585,-0.1153,0,-0.1753,-0.1753,-0.1771,-0.1763,-0.176,-0.1785,-0.1787,-0.1789,-0.1781,-0.1744,-0.1735,-0.168,-0.174,-0.17,-0.1686,-0.1585,-0.1495,-0.1657,-0.1336,-0.1324,-0.1264,-0.1175,-0.1085,-0.0695,-0.1126,-0.1122,-0.1119,0,-0.173,-0.173,-0.1717,-0.1711,-0.171,-0.1712,-0.1698,-0.1697,-0.1679,-0.1659,-0.1637,-0.1614,-0.1548,-0.1608,-0.1424,-0.1524,-0.1414,-0.1341,-0.1324,-0.1238,-0.1215,-0.0782,-0.063,-0.07,-0.1077,-0.108,-0.1083,0,-0.169,-0.1686,-0.1668,-0.1671,-0.168,-0.1669,-0.1669,-0.1665,-0.1607,-0.1583,-0.1503,-0.1481,-0.1382,-0.1321,-0.1212,-0.1292,-0.0981,-0.1055,-0.0865,-0.0852,-0.0698,-0.0679,-0.0576,-0.09,-0.0901,-0.0902,-0.0904,0,-0.1664,-0.1644,-0.1644,-0.1639,-0.1567,-0.1621,-0.154,-0.1544,-0.1495,-0.1382,-0.1439,-0.1316,-0.1315,-0.1164,-0.1117,-0.0879,-0.0881,-0.0812,-0.0748,-0.0703,-0.0691,-0.0688,-0.0813,-0.0886,-0.089,-0.0893,-0.0896,0,-0.1609,-0.164,-0.1577,-0.1562,-0.1546,-0.1489,-0.1405,-0.1337,-0.1334,-0.1178,-0.1143,-0.1098,-0.0926,-0.0875,-0.0699,-0.0672,-0.05,-0.0425,-0.0324,-0.0261,-0.021,-0.0342,-0.0161,-0.014,-0.011,-0.0106,-0.0103,0,-0.1571,-0.1545,-0.1466,-0.1402,-0.1382,-0.1307,-0.1235,-0.1231,-0.1141,-0.1021,-0.0912,-0.0755,-0.0624,-0.0347,-0.0287,-0.0102,-0.0261,0.0091,-0.0096,-0.0151,-0.0248,-0.0376,-0.0384,0.0164,0.0169,0.0173,0.0177,0,-0.1432,-0.1403,-0.1338,-0.1215,-0.1128,-0.1018,-0.0931,-0.0844,-0.0818,-0.0703,-0.0543,-0.0448,-0.0222,-0.0042,0.0131,0.0207,0.0019,0.0185,0.0094,-0.005,-0.0142,-0.0109,-0.0117,0.0215,0.0211,0.0208,0.0206,0.0205,-0.1261,-0.1162,-0.108,-0.0956,-0.0867,-0.0759,-0.0655,-0.0578,-0.0441,-0.0285,-0.0249,-0.0063,0.0118,0.034,0.0383,0.0476,0.0329,0.0469,0.0335,0.023,0.0145,0.0252,0.0622,0.0621,0.062,0.0619,0.0618,0,-0.1012,-0.0943,-0.0823,-0.0686,-0.0573,-0.0593,-0.0455,-0.036,-0.0204,-0.0061,0.0074,0.0336,0.0528,0.0602,0.0733,0.0656,0.0554,0.0561,0.0385,0.0384,0.0513,0.0411,0.0789,0.0789,0.0789,0.0789,0.0789,0.0789,-0.086,-0.0697,-0.0662,-0.044,-0.0379,-0.0227,-0.0159,-0.0049,0.0062,0.0284,0.0448,0.0549,0.0645,0.0681,0.0666,0.062,0.0426,0.0393,0.0283,0.0305,0.0284,0.0263,0.014,0.0456,0.0455,0.024,0.0237,0.0235]},{"header":{"parameterUnit":"m.s-1","parameterCategory":2,"la1":30.2991,"la2":30.254,"lo1":-89.0895,"lo2":-89.0444,"dy":0.0017,"dx":0.0017,"nx":28,"ny":28,"refTime":"2024-07-30T03:00:00:Z","depth":"0","parameterNumber":3,"parameterNumberName":"V-component_of_CURRENTS"},"data":[0,0,0,0,0,0,0,0,0,0,0,0,0,0,0,0,0,0,0,0,0,0,0,0,0,0,0,0,0,0,0,0,0,0,0,0,0,0,0,0,0,0,0,0,0,0,0,0,0,0,0,0,0,0,0,0,0,0,-0.1452,-0.1452,0,-0.1469,-0.1469,-0.147,-0.1438,-0.1437,-0.1436,-0.1435,-0.1331,-0.1329,-0.1328,0,0,0,0,0,0,0,0,0,0,0,0,0,-0.1352,-0.1354,-0.1452,-0.1452,-0.1453,-0.1469,-0.1469,-0.147,-0.1438,-0.1437,-0.1436,-0.1434,-0.1332,-0.133,-0.1328,0,0,0,0,0,0,0,0,0,0,0,0,0,-0.1385,-0.1355,-0.1452,-0.1439,-0.1438,-0.1469,-0.1469,-0.147,-0.1438,-0.1437,-0.1435,-0.1434,-0.1332,-0.133,-0.1327,-0.1342,0,0,-0.1319,-0.1318,0,0,0,0,0,0,0,0,-0.1383,-0.1389,-0.1441,-0.144,-0.1439,-0.145,-0.1396,-0.1421,-0.1439,-0.1438,-0.1435,-0.1433,-0.1361,-0.1356,-0.1364,-0.1337,-0.1333,-0.1319,-0.1317,-0.1316,-0.1315,0,0,0,0,0,0,0,-0.1381,-0.1387,-0.1459,-0.1441,-0.144,-0.1418,-0.1422,-0.1401,-0.1406,-0.1438,-0.1436,-0.1438,-0.1359,-0.1367,-0.1361,-0.1331,-0.1319,-0.1316,-0.1315,-0.1314,-0.1275,-0.1276,0,0,0,0,0,0,-0.1384,-0.1386,-0.1458,-0.1459,-0.1407,-0.1422,-0.1425,-0.1448,-0.1409,-0.1402,-0.144,-0.1437,-0.1372,-0.1364,-0.1357,-0.1328,-0.1316,-0.1313,-0.1312,-0.1275,-0.1276,-0.1276,0,0,0,0,0,0,-0.1382,-0.1391,-0.1458,-0.1421,-0.1428,-0.1425,-0.1451,-0.1449,-0.1449,-0.1411,-0.1402,-0.1441,-0.1371,-0.1361,-0.1344,-0.1325,-0.1312,-0.131,-0.1274,-0.1275,-0.1276,-0.1298,0,0,0,0,0,0,-0.1379,-0.1391,-0.1405,-0.1423,-0.1431,-0.1472,-0.1452,-0.1451,-0.1454,-0.145,-0.1409,-0.1398,-0.1369,-0.1348,-0.1341,-0.1321,-0.1308,-0.1273,-0.1275,-0.1276,-0.1296,-0.1299,-0.1302,0,0,0,0,0,-0.1376,-0.1404,-0.1406,-0.1415,-0.1453,-0.1472,-0.1475,-0.1466,-0.1455,-0.146,-0.1439,-0.1399,-0.1349,-0.1347,-0.1339,-0.1317,-0.1273,-0.1274,-0.1276,-0.1295,-0.1299,-0.1302,0,0,0,0,0,0,-0.1363,-0.1404,-0.1407,-0.1445,-0.1455,-0.1467,-0.1472,-0.147,-0.1462,-0.1453,-0.1415,-0.1404,-0.1379,-0.1357,-0.1356,-0.1313,-0.1301,-0.1301,-0.1319,-0.1322,-0.1325,-0.1299,-0.1305,0,0,0,0,0,-0.1371,-0.1408,-0.1428,-0.1457,-0.1463,-0.1469,-0.1475,-0.1473,-0.1469,-0.1464,-0.1438,-0.1409,-0.1382,-0.136,-0.1339,-0.132,-0.1233,-0.1301,-0.1303,-0.1306,-0.1281,-0.1118,-0.1101,-0.1281,-0.1281,-0.1281,0,0,-0.1373,-0.1402,-0.142,-0.1457,-0.1464,-0.1476,-0.1468,-0.1482,-0.1488,-0.1453,-0.1448,-0.1421,-0.1384,-0.1361,-0.1346,-0.1335,-0.122,-0.1307,-0.1309,-0.1283,-0.1117,-0.1098,-0.1082,-0.1282,-0.1281,-0.1281,0,0,-0.1389,-0.1422,-0.1447,-0.1459,-0.1477,-0.1485,-0.1489,-0.15,-0.1498,-0.1502,-0.1469,-0.1427,-0.1412,-0.136,-0.1337,-0.1343,-0.1245,-0.1347,-0.1328,-0.1171,-0.1153,-0.1136,-0.1037,-0.1011,-0.1341,-0.1341,-0.1341,0,-0.1384,-0.1422,-0.1453,-0.1471,-0.1474,-0.1488,-0.1493,-0.1508,-0.1511,-0.1487,-0.1501,-0.1419,-0.14,-0.1321,-0.1339,-0.134,-0.1255,-0.1317,-0.1168,-0.1149,-0.1131,-0.1033,-0.1004,-0.1343,-0.1342,-0.1342,-0.1342,0,-0.1411,-0.1433,-0.1447,-0.1478,-0.1489,-0.15,-0.1516,-0.152,-0.1522,-0.1507,-0.1446,-0.1415,-0.1341,-0.1347,-0.1355,-0.1228,-0.1213,-0.1191,-0.1148,-0.1113,-0.1015,-0.0983,-0.1344,-0.1344,-0.1344,-0.1343,0,0,-0.1411,-0.1455,-0.1458,-0.1444,-0.1488,-0.1482,-0.151,-0.1497,-0.1449,-0.1461,-0.137,-0.1363,-0.1309,-0.128,-0.1254,-0.1149,-0.099,-0.113,-0.1121,-0.1013,-0.0665,-0.0745,-0.0719,-0.0927,-0.0921,-0.0916,-0.0658,0,-0.1409,-0.1422,-0.1463,-0.1453,-0.1441,-0.1468,-0.1467,-0.1457,-0.1438,-0.1358,-0.1314,-0.1224,-0.1294,-0.1223,-0.114,-0.1023,-0.0904,-0.1064,-0.073,-0.0721,-0.0778,-0.0683,-0.0632,-0.0404,-0.0627,-0.0622,-0.0618,0,-0.1407,-0.141,-0.1398,-0.1383,-0.1379,-0.1378,-0.1326,-0.1329,-0.1259,-0.1229,-0.115,-0.1101,-0.0992,-0.102,-0.0797,-0.0894,-0.0776,-0.0692,-0.0678,-0.0713,-0.0741,-0.0469,-0.0339,-0.0214,-0.057,-0.0573,-0.0577,0,-0.1326,-0.1356,-0.1328,-0.1329,-0.1326,-0.1309,-0.1307,-0.1263,-0.1212,-0.1107,-0.1022,-0.0917,-0.0812,-0.0673,-0.0616,-0.0647,-0.0354,-0.0353,-0.0306,-0.0312,-0.0183,-0.0189,0.0133,-0.0114,-0.0115,-0.0116,-0.0116,0,-0.1275,-0.1242,-0.1276,-0.1241,-0.1171,-0.1215,-0.1115,-0.1104,-0.1028,-0.0923,-0.0916,-0.0804,-0.0708,-0.0584,-0.0518,-0.0362,-0.0266,-0.0266,-0.0224,-0.0203,-0.0213,-0.0034,-0.0032,-0.0106,-0.0108,-0.011,-0.0112,0,-0.1127,-0.118,-0.1116,-0.1117,-0.1113,-0.1041,-0.1001,-0.0929,-0.0891,-0.0746,-0.07,-0.0643,-0.0531,-0.0475,-0.0247,-0.0218,0.0007,-0.002,-0.0062,-0.0032,0.01,0.0094,0.0394,0.0476,0.013,0.013,0.013,0,-0.1032,-0.0993,-0.0977,-0.0949,-0.0934,-0.087,-0.0831,-0.083,-0.0767,-0.066,-0.0577,-0.0466,-0.0417,-0.0212,-0.0141,-0.0011,0.0061,0.0153,0.0103,0.0148,0.0178,0.0148,0.0194,0.0272,0.0273,0.0274,0.0275,0,-0.0815,-0.0822,-0.0779,-0.0737,-0.0703,-0.0653,-0.0614,-0.0556,-0.055,-0.0469,-0.0391,-0.0351,-0.0239,-0.0152,-0.0052,0.0054,0.0221,0.0173,0.0313,0.0389,0.0302,0.0385,0.0002,0.0283,0.0282,0.0282,0.0281,0.0281,-0.0632,-0.0568,-0.0558,-0.0511,-0.049,-0.0464,-0.0413,-0.0403,-0.0331,-0.0245,-0.0254,-0.0197,-0.0121,-0.0017,0.01,0.0354,0.0286,0.0471,0.0485,0.0469,0.0481,0.0041,0.0284,0.0283,0.0282,0.0282,0.0281,0,-0.0422,-0.0407,-0.035,-0.033,-0.0298,-0.0333,-0.0291,-0.0258,-0.0204,-0.015,-0.0111,-0.002,0.0105,0.0239,0.0485,0.0661,0.0739,0.0766,0.0827,0.0881,0.0631,0.0566,0.0769,0.0769,0.0769,0.0769,0.0769,0.0769,-0.0316,-0.0232,-0.0244,-0.0174,-0.0172,-0.013,-0.0115,-0.0077,-0.0042,0.0054,0.0109,0.0135,0.0297,0.0559,0.0901,0.0993,0.1151,0.11,0.1164,0.1054,0.103,0.1007,0.0956,0.1237,0.1237,0.1462,0.1464,0.1466]}],[{"header":{"parameterUnit":"m.s-1","parameterCategory":2,"la1":30.2991,"la2":30.254,"lo1":-89.0895,"lo2":-89.0444,"dy":0.0017,"dx":0.0017,"nx":28,"ny":28,"refTime":"2024-07-30T03:00:00:Z","depth":"2","parameterNumber":2,"parameterNumberName":"U-component_of_CURRENTS"},"data":[0,0,0,0,0,0,0,0,0,0,0,0,0,0,0,0,0,0,0,0,0,0,0,0,0,0,0,0,0,0,0,0,0,0,0,0,0,0,0,0,0,0,0,0,0,0,0,0,0,0,0,0,0,0,0,0,0,0,-0.2161,-0.2162,0,-0.2224,-0.2225,-0.2225,-0.2403,-0.2407,-0.2411,-0.2415,-0.2547,-0.2547,-0.2547,0,0,0,0,0,0,0,0,0,0,0,0,0,-0.2049,-0.2051,-0.2161,-0.2162,-0.2163,-0.2224,-0.2225,-0.2225,-0.2403,-0.2407,-0.2412,-0.2417,-0.2547,-0.2547,-0.2547,0,0,0,0,0,0,0,0,0,0,0,0,0,-0.2103,-0.2051,-0.2161,-0.2259,-0.2268,-0.2224,-0.2225,-0.2226,-0.2402,-0.2408,-0.2413,-0.2419,-0.2548,-0.2547,-0.2547,-0.2429,0,0,-0.2547,-0.2547,0,0,0,0,0,0,0,0,-0.21,-0.2107,-0.2244,-0.2252,-0.2263,-0.2312,-0.2234,-0.2297,-0.24,-0.2351,-0.2415,-0.2422,-0.2471,-0.2477,-0.2475,-0.2435,-0.2441,-0.2547,-0.2547,-0.2546,-0.2546,0,0,0,0,0,0,0,-0.2096,-0.2104,-0.2186,-0.2244,-0.2256,-0.2249,-0.2265,-0.2245,-0.2378,-0.2355,-0.2369,-0.2374,-0.2478,-0.2474,-0.2479,-0.2443,-0.2547,-0.2547,-0.2546,-0.2546,-0.2524,-0.2523,0,0,0,0,0,0,-0.209,-0.2101,-0.2184,-0.2188,-0.2194,-0.2247,-0.2265,-0.229,-0.2377,-0.2396,-0.2369,-0.2382,-0.2472,-0.2479,-0.2485,-0.2556,-0.2546,-0.2546,-0.2546,-0.2524,-0.2524,-0.2523,0,0,0,0,0,0,-0.2088,-0.2097,-0.2181,-0.2145,-0.2156,-0.2244,-0.227,-0.2288,-0.2341,-0.2387,-0.2409,-0.2411,-0.2477,-0.2485,-0.2535,-0.2555,-0.2546,-0.2546,-0.2525,-0.2524,-0.2524,-0.2565,0,0,0,0,0,0,-0.2084,-0.2097,-0.2128,-0.2145,-0.2158,-0.221,-0.2265,-0.2285,-0.2332,-0.2352,-0.2427,-0.2443,-0.2482,-0.2535,-0.2535,-0.2555,-0.2546,-0.2526,-0.2525,-0.2524,-0.2565,-0.2566,-0.2567,0,0,0,0,0,-0.208,-0.2102,-0.213,-0.214,-0.2194,-0.2211,-0.2218,-0.2297,-0.2329,-0.2363,-0.2418,-0.2444,-0.253,-0.2534,-0.2534,-0.2555,-0.2526,-0.2525,-0.2524,-0.2564,-0.2566,-0.2567,0,0,0,0,0,0,-0.2083,-0.2122,-0.2154,-0.2193,-0.2223,-0.2243,-0.2264,-0.2299,-0.2358,-0.2386,-0.2433,-0.2452,-0.2503,-0.2502,-0.2506,-0.2541,-0.253,-0.2529,-0.2561,-0.2563,-0.2564,-0.2542,-0.2546,0,0,0,0,0,-0.2087,-0.213,-0.2148,-0.2194,-0.2187,-0.222,-0.2238,-0.229,-0.2329,-0.2365,-0.2415,-0.2453,-0.2476,-0.2507,-0.2526,-0.2529,-0.2464,-0.254,-0.2541,-0.2543,-0.2522,-0.2436,-0.2427,-0.252,-0.252,-0.252,0,0,-0.2102,-0.2133,-0.2159,-0.2199,-0.2211,-0.2205,-0.2249,-0.2282,-0.2315,-0.2359,-0.2424,-0.2457,-0.2476,-0.2514,-0.2533,-0.2532,-0.2479,-0.2541,-0.2543,-0.252,-0.2433,-0.2424,-0.2416,-0.2519,-0.2519,-0.2519,0,0,-0.2121,-0.2166,-0.2181,-0.2191,-0.222,-0.2228,-0.224,-0.2269,-0.2328,-0.2366,-0.2414,-0.2467,-0.249,-0.2533,-0.2544,-0.2545,-0.2486,-0.2546,-0.2545,-0.2463,-0.2454,-0.2446,-0.234,-0.2321,-0.2553,-0.2553,-0.2553,0,-0.2137,-0.2174,-0.2191,-0.2186,-0.2212,-0.2232,-0.2244,-0.2261,-0.2328,-0.2373,-0.2405,-0.2444,-0.2497,-0.2515,-0.2549,-0.2553,-0.247,-0.2548,-0.2464,-0.2454,-0.2445,-0.2338,-0.2318,-0.2555,-0.2554,-0.2554,-0.2554,0,-0.2135,-0.2175,-0.2173,-0.2187,-0.2208,-0.223,-0.2242,-0.2299,-0.2352,-0.237,-0.2421,-0.2459,-0.2486,-0.2515,-0.2545,-0.2513,-0.2462,-0.2473,-0.2462,-0.2438,-0.2327,-0.2305,-0.2557,-0.2557,-0.2556,-0.2556,0,0,-0.215,-0.2174,-0.2179,-0.2211,-0.2228,-0.2247,-0.2292,-0.2343,-0.2361,-0.2409,-0.2427,-0.2491,-0.2485,-0.2494,-0.2516,-0.2473,-0.2376,-0.245,-0.2444,-0.2346,-0.2146,-0.208,-0.2049,-0.2357,-0.2354,-0.2351,-0.209,0,-0.2158,-0.2186,-0.2193,-0.2235,-0.2253,-0.2299,-0.2318,-0.237,-0.2408,-0.2415,-0.2439,-0.2428,-0.247,-0.2474,-0.2438,-0.2398,-0.2318,-0.2442,-0.218,-0.2171,-0.2119,-0.2023,-0.1967,-0.1727,-0.2068,-0.2064,-0.2061,0,-0.216,-0.2192,-0.2231,-0.2302,-0.2302,-0.23,-0.2383,-0.2397,-0.2398,-0.2418,-0.2403,-0.2387,-0.2355,-0.2369,-0.2228,-0.2292,-0.221,-0.2161,-0.215,-0.2054,-0.2064,-0.1806,-0.1673,-0.2023,-0.2027,-0.2029,-0.2032,0,-0.2201,-0.2241,-0.2298,-0.231,-0.2336,-0.2375,-0.2382,-0.2402,-0.2395,-0.2372,-0.2342,-0.2295,-0.2229,-0.2142,-0.2077,-0.2128,-0.1875,-0.1936,-0.1776,-0.1769,-0.1652,-0.1641,-0.1775,-0.1775,-0.1776,-0.1777,-0.1777,0,-0.2237,-0.2274,-0.2307,-0.2317,-0.2329,-0.2368,-0.2339,-0.2364,-0.233,-0.2262,-0.2286,-0.2208,-0.2159,-0.2044,-0.1998,-0.1795,-0.1794,-0.1724,-0.1684,-0.1665,-0.1658,-0.1876,-0.1891,-0.1767,-0.1769,-0.1771,-0.1773,0,-0.2241,-0.2285,-0.2313,-0.2341,-0.233,-0.2322,-0.2254,-0.2229,-0.2218,-0.2131,-0.2111,-0.2079,-0.1925,-0.1858,-0.1693,-0.1653,-0.1513,-0.1435,-0.1407,-0.1369,-0.1477,-0.1498,-0.1218,-0.1213,-0.1209,-0.1206,-0.1203,0,-0.2233,-0.2251,-0.2267,-0.2241,-0.2224,-0.2189,-0.2139,-0.2143,-0.2118,-0.2041,-0.2005,-0.1861,-0.174,-0.1477,-0.1398,-0.1229,-0.1309,-0.1068,-0.1182,-0.1424,-0.1413,-0.1441,-0.1466,-0.1029,-0.1025,-0.1022,-0.1019,0,-0.2154,-0.2163,-0.2166,-0.2129,-0.2086,-0.203,-0.1989,-0.1961,-0.1955,-0.1892,-0.1796,-0.1693,-0.1463,-0.1284,-0.1088,-0.0997,-0.1113,-0.0994,-0.1193,-0.1208,-0.1232,-0.1228,-0.1261,-0.099,-0.0993,-0.0995,-0.0996,-0.0998,-0.2038,-0.2029,-0.2033,-0.1992,-0.1945,-0.1897,-0.1823,-0.181,-0.1741,-0.1629,-0.1584,-0.136,-0.1291,-0.0958,-0.0842,-0.0756,-0.086,-0.083,-0.0846,-0.0863,-0.0916,-0.0936,-0.0645,-0.0645,-0.0646,-0.0647,-0.0648,0,-0.1891,-0.191,-0.1881,-0.1857,-0.1782,-0.1788,-0.1732,-0.1642,-0.1543,-0.1422,-0.1267,-0.0991,-0.0835,-0.0747,-0.0617,-0.0572,-0.06,-0.0495,-0.0591,-0.062,-0.0646,-0.0695,-0.0359,-0.0358,-0.0357,-0.0356,0,0,-0.1799,-0.1777,-0.1806,-0.1695,-0.166,-0.1542,-0.1488,-0.1346,-0.1242,-0.1035,-0.0876,-0.0773,-0.0765,-0.0588,-0.0539,-0.0452,-0.0518,-0.0384,-0.0625,-0.0771,-0.0796,-0.0852,-0.0959,0,0,0,0,0]},{"header":{"parameterUnit":"m.s-1","parameterCategory":2,"la1":30.2991,"la2":30.254,"lo1":-89.0895,"lo2":-89.0444,"dy":0.0017,"dx":0.0017,"nx":28,"ny":28,"refTime":"2024-07-30T03:00:00:Z","depth":"2","parameterNumber":3,"parameterNumberName":"V-component_of_CURRENTS"},"data":[0,0,0,0,0,0,0,0,0,0,0,0,0,0,0,0,0,0,0,0,0,0,0,0,0,0,0,0,0,0,0,0,0,0,0,0,0,0,0,0,0,0,0,0,0,0,0,0,0,0,0,0,0,0,0,0,0,0,0.0177,0.0178,0,0.0296,0.0298,0.03,0.0456,0.0458,0.046,0.0462,0.0786,0.0792,0.0799,0,0,0,0,0,0,0,0,0,0,0,0,0,0.0092,0.0093,0.0177,0.0178,0.018,0.0296,0.0298,0.03,0.0455,0.0458,0.0461,0.0463,0.0784,0.0791,0.0799,0,0,0,0,0,0,0,0,0,0,0,0,0,0.0165,0.0093,0.0177,0.0269,0.0278,0.0296,0.0298,0.0301,0.0455,0.0458,0.0461,0.0464,0.0781,0.0791,0.08,0.0793,0,0,0.083,0.0834,0,0,0,0,0,0,0,0,0.016,0.0168,0.0254,0.0262,0.0272,0.0362,0.0386,0.0474,0.0454,0.0391,0.0462,0.0466,0.0658,0.0678,0.0695,0.0809,0.0822,0.0831,0.0837,0.0841,0.0844,0,0,0,0,0,0,0,0.0155,0.0164,0.0228,0.0255,0.0266,0.0306,0.032,0.0403,0.0511,0.0397,0.0408,0.0414,0.0666,0.0685,0.0704,0.0827,0.0831,0.0839,0.0845,0.0849,0.1105,0.1106,0,0,0,0,0,0,0.0129,0.0159,0.0224,0.0231,0.022,0.0304,0.0321,0.0332,0.0506,0.0533,0.0411,0.0421,0.0667,0.0693,0.0717,0.0817,0.0841,0.085,0.0856,0.1104,0.1105,0.1106,0,0,0,0,0,0,0.0127,0.0134,0.0219,0.0195,0.0208,0.0302,0.0314,0.0333,0.0382,0.0514,0.0546,0.0444,0.067,0.0703,0.0838,0.0828,0.0855,0.0864,0.1103,0.1104,0.1106,0.0957,0,0,0,0,0,0,0.0124,0.0133,0.0136,0.0193,0.0209,0.0247,0.0311,0.0333,0.0378,0.0393,0.0552,0.0584,0.0675,0.0823,0.0848,0.0842,0.0871,0.1102,0.1104,0.1105,0.096,0.0953,0.0946,0,0,0,0,0,0.0121,0.0115,0.0135,0.0143,0.0209,0.0246,0.0258,0.0338,0.0376,0.0396,0.0522,0.0581,0.0852,0.0832,0.0861,0.0857,0.1101,0.1103,0.1105,0.0964,0.0954,0.0946,0,0,0,0,0,0,0.0087,0.0131,0.0155,0.0166,0.0206,0.0272,0.0285,0.0334,0.044,0.0467,0.0599,0.064,0.0754,0.0831,0.0806,0.094,0.0982,0.099,0.0865,0.0857,0.085,0.0797,0.0879,0,0,0,0,0,0.0071,0.0085,0.0129,0.0142,0.0148,0.0213,0.0238,0.0291,0.0382,0.0431,0.0543,0.0667,0.0774,0.0838,0.0947,0.1014,0.1042,0.1032,0.1025,0.1018,0.0998,0.0997,0.0985,0.1113,0.1113,0.1113,0,0,0.0061,0.0088,0.0096,0.0135,0.0165,0.0175,0.0239,0.0273,0.0308,0.045,0.0546,0.0654,0.0792,0.0882,0.0936,0.0949,0.1006,0.1021,0.1013,0.0997,0.0998,0.0984,0.0973,0.1114,0.1114,0.1114,0,0,0.0041,0.0063,0.0062,0.0083,0.0122,0.0156,0.0163,0.0234,0.0294,0.0384,0.0499,0.0599,0.076,0.0846,0.0911,0.0928,0.0974,0.0966,0.0878,0.0877,0.0864,0.0853,0.0893,0.0887,0.0953,0.0952,0.0952,0,0.0027,0.0033,0.0068,0.0067,0.0081,0.0141,0.0141,0.0192,0.0312,0.0357,0.0409,0.0614,0.0735,0.0821,0.0837,0.0905,0.092,0.089,0.0859,0.0849,0.0841,0.0884,0.0878,0.0945,0.0946,0.0947,0.0948,0,0.0001,0.0007,0.0001,0.0019,0.0039,0.0048,0.0104,0.0153,0.0221,0.0278,0.0385,0.0524,0.0633,0.0688,0.0774,0.0782,0.082,0.0848,0.0858,0.0817,0.0868,0.0865,0.0935,0.0938,0.094,0.0942,0,0,-0.0035,-0.0019,-0.0021,-0.0026,0.0016,0.0022,0.0069,0.0121,0.014,0.0244,0.0283,0.0438,0.0477,0.0553,0.065,0.066,0.0636,0.0713,0.0716,0.0714,0.0646,0.0711,0.0715,0.0635,0.0633,0.0632,0.0711,0,-0.0065,-0.0087,-0.0056,-0.0073,-0.0089,-0.0025,-0.0003,0.0057,0.0129,0.0181,0.0288,0.0353,0.0431,0.0465,0.0484,0.0632,0.0619,0.0614,0.0721,0.0725,0.0754,0.071,0.0633,0.0699,0.0709,0.0709,0.0708,0,-0.0103,-0.0114,-0.0143,-0.0136,-0.0139,-0.0145,-0.0108,-0.0072,0.0012,0.0065,0.0121,0.0205,0.0283,0.0322,0.0453,0.044,0.0505,0.059,0.0595,0.0697,0.0783,0.0744,0.0694,0.0705,0.0705,0.0705,0.0706,0,-0.0171,-0.0171,-0.0201,-0.0201,-0.0192,-0.0191,-0.0181,-0.0117,-0.0087,-0.0035,-0.0,0.0078,0.0153,0.0215,0.0408,0.0407,0.0547,0.0573,0.0679,0.0688,0.0667,0.0676,0.0576,0.0576,0.0576,0.0576,0.0576,0,-0.0226,-0.0258,-0.025,-0.0283,-0.0325,-0.0285,-0.0309,-0.0277,-0.0224,-0.018,-0.0099,-0.0036,0.0118,0.0246,0.0361,0.0539,0.0498,0.065,0.0695,0.0623,0.0626,0.0669,0.0679,0.0579,0.0578,0.0578,0.0577,0,-0.0321,-0.0307,-0.0358,-0.0366,-0.037,-0.0415,-0.0402,-0.0399,-0.0352,-0.0284,-0.0276,-0.0114,0.006,0.023,0.0403,0.0514,0.0651,0.0698,0.0634,0.0669,0.0802,0.0804,0.0817,0.082,0.0822,0.0824,0.0825,0,-0.0387,-0.0416,-0.0444,-0.0463,-0.048,-0.0516,-0.052,-0.0485,-0.0447,-0.0305,-0.0256,-0.0094,0.0048,0.0337,0.0555,0.0744,0.0712,0.0753,0.0728,0.0775,0.0818,0.0816,0.0815,0.0658,0.0658,0.0658,0.0658,0,-0.0501,-0.0501,-0.0531,-0.0568,-0.0591,-0.0604,-0.0592,-0.058,-0.0477,-0.0421,-0.0271,-0.0169,0.0159,0.0376,0.0631,0.0716,0.0723,0.0763,0.0796,0.062,0.0634,0.0674,0.0675,0.0658,0.0658,0.0658,0.0658,0.0658,-0.0573,-0.0613,-0.0616,-0.0655,-0.0665,-0.065,-0.0644,-0.0587,-0.0542,-0.0393,-0.0296,-0.01,0.0105,0.05,0.0626,0.0783,0.0828,0.0794,0.0789,0.0785,0.0763,0.078,0.0831,0.0831,0.0832,0.0833,0.0834,0,-0.0633,-0.064,-0.0685,-0.0709,-0.0728,-0.0694,-0.064,-0.062,-0.0541,-0.0377,-0.0268,-0.0073,0.0156,0.0391,0.0676,0.0804,0.0744,0.0744,0.0635,0.0636,0.0636,0.0602,0.0629,0.0629,0.0629,0.0629,0,0,-0.0651,-0.0694,-0.0715,-0.075,-0.0741,-0.0709,-0.066,-0.0626,-0.0511,-0.0384,-0.0205,-0.0044,0.0244,0.0356,0.0472,0.0589,0.0562,0.0556,0.0709,0.0565,0.0563,0.0658,0.0607,0,0,0,0,0]}],[{"header":{"parameterUnit":"m.s-1","parameterCategory":2,"la1":30.2991,"la2":30.254,"lo1":-89.0895,"lo2":-89.0444,"dy":0.0017,"dx":0.0017,"nx":28,"ny":28,"refTime":"2024-07-30T03:00:00:Z","depth":"4","parameterNumber":2,"parameterNumberName":"U-component_of_CURRENTS"},"data":[0,0,0,0,0,0,0,0,0,0,0,0,0,0,0,0,0,0,0,0,0,0,0,0,0,0,0,0,0,0,0,0,0,0,0,0,0,0,0,0,0,0,0,0,0,0,0,0,0,0,0,0,0,0,0,0,0,0,-0.1124,-0.1125,0,-0.1163,-0.1164,-0.1164,-0.1166,-0.1166,-0.1165,-0.1165,-0.1216,-0.1218,-0.1219,0,0,0,0,0,0,0,0,0,0,0,0,0,-0.1067,-0.1068,-0.1124,-0.1125,-0.1125,-0.1163,-0.1164,-0.1164,-0.1166,-0.1166,-0.1165,-0.1165,-0.1216,-0.1218,-0.1219,0,0,0,0,0,0,0,0,0,0,0,0,0,-0.1094,-0.1068,-0.1124,-0.1133,-0.1135,-0.1163,-0.1164,-0.1164,-0.1166,-0.1166,-0.1165,-0.1165,-0.1215,-0.1217,-0.122,-0.1238,0,0,-0.1227,-0.1228,0,0,0,0,0,0,0,0,-0.1093,-0.1096,-0.1131,-0.1133,-0.1135,-0.1162,-0.1163,-0.1191,-0.1166,-0.1151,-0.1165,-0.1165,-0.1202,-0.1205,-0.1208,-0.1241,-0.1243,-0.1227,-0.1228,-0.1229,-0.123,0,0,0,0,0,0,0,-0.1091,-0.1094,-0.1136,-0.1132,-0.1134,-0.1142,-0.1145,-0.1168,-0.1175,-0.1152,-0.1153,-0.1163,-0.1202,-0.1206,-0.1209,-0.1244,-0.1227,-0.1229,-0.123,-0.1231,-0.134,-0.1341,0,0,0,0,0,0,-0.1092,-0.1093,-0.1135,-0.1138,-0.1117,-0.1143,-0.1147,-0.1151,-0.1174,-0.1178,-0.1163,-0.1163,-0.1202,-0.1207,-0.1211,-0.1279,-0.1229,-0.1231,-0.1232,-0.1338,-0.134,-0.1342,0,0,0,0,0,0,-0.1091,-0.1095,-0.1133,-0.1119,-0.1125,-0.1145,-0.1149,-0.1152,-0.1174,-0.1183,-0.1187,-0.1184,-0.1202,-0.1208,-0.1249,-0.1279,-0.1232,-0.1234,-0.1337,-0.1339,-0.1341,-0.1385,0,0,0,0,0,0,-0.1089,-0.1094,-0.1104,-0.1119,-0.1126,-0.1159,-0.115,-0.1153,-0.1181,-0.1181,-0.1203,-0.1206,-0.1202,-0.1246,-0.1251,-0.1281,-0.1236,-0.1335,-0.1338,-0.134,-0.1382,-0.1389,-0.1395,0,0,0,0,0,-0.1086,-0.1098,-0.1104,-0.111,-0.1136,-0.116,-0.1164,-0.1175,-0.1182,-0.1193,-0.1213,-0.1206,-0.1268,-0.1249,-0.1255,-0.1286,-0.1333,-0.1337,-0.134,-0.1379,-0.1387,-0.1395,0,0,0,0,0,0,-0.1079,-0.11,-0.1107,-0.1124,-0.1146,-0.1162,-0.1177,-0.119,-0.1214,-0.1221,-0.1227,-0.1232,-0.1275,-0.128,-0.1259,-0.1327,-0.1299,-0.1304,-0.1327,-0.1335,-0.1341,-0.1328,-0.1238,0,0,0,0,0,-0.1083,-0.1096,-0.1119,-0.1135,-0.1147,-0.1168,-0.1183,-0.1194,-0.1216,-0.1227,-0.1245,-0.1268,-0.1292,-0.1313,-0.1328,-0.1373,-0.1363,-0.1397,-0.1404,-0.1409,-0.1403,-0.1417,-0.1424,-0.1353,-0.1353,-0.1353,0,0,-0.1089,-0.1099,-0.111,-0.1135,-0.1151,-0.1171,-0.1176,-0.1206,-0.1228,-0.1231,-0.1272,-0.129,-0.1308,-0.1349,-0.137,-0.136,-0.1426,-0.1413,-0.1418,-0.1409,-0.1421,-0.1428,-0.1434,-0.1356,-0.1355,-0.1355,0,0,-0.1094,-0.1114,-0.1123,-0.1144,-0.1174,-0.1188,-0.1203,-0.1234,-0.1255,-0.1297,-0.1305,-0.1342,-0.1382,-0.1399,-0.1413,-0.1469,-0.1454,-0.1482,-0.1513,-0.1527,-0.1532,-0.1537,-0.1537,-0.1541,-0.1493,-0.1493,-0.1493,0,-0.1099,-0.1114,-0.1133,-0.1146,-0.117,-0.1199,-0.1221,-0.1246,-0.1289,-0.1316,-0.1316,-0.1387,-0.1402,-0.1455,-0.1472,-0.1483,-0.1482,-0.1481,-0.1534,-0.1538,-0.1542,-0.1541,-0.1545,-0.1495,-0.1495,-0.1495,-0.1495,0,-0.1105,-0.1129,-0.114,-0.1165,-0.119,-0.122,-0.1256,-0.1291,-0.1324,-0.1351,-0.1414,-0.1439,-0.1478,-0.1499,-0.1503,-0.1552,-0.154,-0.1533,-0.1509,-0.1551,-0.1548,-0.1552,-0.1499,-0.1498,-0.1497,-0.1497,0,0,-0.109,-0.1134,-0.1142,-0.1161,-0.1209,-0.1229,-0.1277,-0.1329,-0.1364,-0.1414,-0.146,-0.1514,-0.1532,-0.1548,-0.1568,-0.159,-0.1621,-0.1579,-0.1578,-0.157,-0.1645,-0.1493,-0.1482,-0.1626,-0.1627,-0.1627,-0.1633,0,-0.1093,-0.112,-0.1147,-0.119,-0.1212,-0.126,-0.13,-0.1352,-0.1397,-0.1447,-0.1497,-0.1539,-0.155,-0.1573,-0.1601,-0.1612,-0.1631,-0.1619,-0.1613,-0.1612,-0.1465,-0.1481,-0.163,-0.1636,-0.1636,-0.1637,-0.1637,0,-0.1086,-0.111,-0.1148,-0.1206,-0.1222,-0.1253,-0.1326,-0.1362,-0.1437,-0.1475,-0.1532,-0.1561,-0.1615,-0.1607,-0.1652,-0.1645,-0.1647,-0.1654,-0.1654,-0.1493,-0.1465,-0.1585,-0.1643,-0.1642,-0.1642,-0.1642,-0.1641,0,-0.1054,-0.1111,-0.1143,-0.1164,-0.1231,-0.1267,-0.1304,-0.1376,-0.1406,-0.1487,-0.1509,-0.1585,-0.1604,-0.1637,-0.1644,-0.1655,-0.167,-0.1685,-0.1553,-0.1542,-0.1659,-0.1654,-0.1705,-0.1705,-0.1705,-0.1705,-0.1705,0,-0.1035,-0.1063,-0.1135,-0.1152,-0.1191,-0.125,-0.1296,-0.1344,-0.1409,-0.1431,-0.1512,-0.1521,-0.1609,-0.1625,-0.1646,-0.1588,-0.1669,-0.1546,-0.1528,-0.1679,-0.1676,-0.1661,-0.1656,-0.1706,-0.1706,-0.1706,-0.1706,0,-0.0982,-0.1032,-0.1068,-0.1149,-0.1172,-0.1197,-0.1264,-0.1293,-0.1362,-0.1387,-0.1408,-0.1477,-0.1484,-0.1544,-0.1583,-0.1553,-0.1541,-0.1502,-0.1645,-0.1638,-0.1412,-0.141,-0.1365,-0.136,-0.1355,-0.1351,-0.1348,0,-0.095,-0.0966,-0.1045,-0.1063,-0.1099,-0.1148,-0.1175,-0.1255,-0.1276,-0.1333,-0.1329,-0.1359,-0.1393,-0.1325,-0.1403,-0.142,-0.1409,-0.1401,-0.1421,-0.1387,-0.1376,-0.138,-0.1384,-0.1341,-0.134,-0.1338,-0.1337,0,-0.0889,-0.0926,-0.0958,-0.0993,-0.1028,-0.1054,-0.1098,-0.11,-0.1176,-0.1246,-0.1204,-0.1201,-0.1194,-0.1222,-0.1228,-0.1248,-0.141,-0.1354,-0.1364,-0.1383,-0.1357,-0.1351,-0.136,-0.1321,-0.1324,-0.1325,-0.1326,0,-0.0842,-0.0845,-0.089,-0.091,-0.0943,-0.0942,-0.0983,-0.0994,-0.1015,-0.1087,-0.106,-0.1098,-0.1157,-0.1128,-0.1138,-0.1133,-0.1136,-0.1125,-0.1148,-0.1166,-0.1098,-0.1036,-0.0875,0,0,0,0,0,-0.079,-0.0785,-0.0801,-0.0815,-0.0841,-0.0856,-0.092,-0.0968,-0.1038,-0.097,-0.1012,-0.0996,-0.0979,-0.1003,-0.0962,-0.1073,-0.1159,-0.1022,-0.1162,-0.1232,-0.1251,-0.119,0,0,0,0,0,0,-0.075,-0.0768,-0.0772,-0.0725,-0.0712,-0.0728,-0.0764,-0.0821,-0.0794,-0.0867,-0.0863,-0.0915,-0.0923,-0.0973,-0.0929,-0.0941,-0.1006,-0.1055,-0.1052,-0.1222,-0.1239,-0.1254,-0.1197,0,0,0,0,0]},{"header":{"parameterUnit":"m.s-1","parameterCategory":2,"la1":30.2991,"la2":30.254,"lo1":-89.0895,"lo2":-89.0444,"dy":0.0017,"dx":0.0017,"nx":28,"ny":28,"refTime":"2024-07-30T03:00:00:Z","depth":"4","parameterNumber":3,"parameterNumberName":"V-component_of_CURRENTS"},"data":[0,0,0,0,0,0,0,0,0,0,0,0,0,0,0,0,0,0,0,0,0,0,0,0,0,0,0,0,0,0,0,0,0,0,0,0,0,0,0,0,0,0,0,0,0,0,0,0,0,0,0,0,0,0,0,0,0,0,-0.003,-0.003,0,-0.0027,-0.0028,-0.0028,0.0001,0.0002,0.0003,0.0004,0.006,0.006,0.0061,0,0,0,0,0,0,0,0,0,0,0,0,0,-0.0024,-0.0024,-0.003,-0.003,-0.003,-0.0027,-0.0028,-0.0028,0.0001,0.0002,0.0003,0.0004,0.006,0.006,0.0061,0,0,0,0,0,0,0,0,0,0,0,0,0,-0.0026,-0.0024,-0.003,-0.0014,-0.0012,-0.0027,-0.0028,-0.0028,0.0001,0.0002,0.0003,0.0005,0.0059,0.006,0.0061,0.0041,0,0,0.0064,0.0065,0,0,0,0,0,0,0,0,-0.0026,-0.0027,-0.0017,-0.0015,-0.0013,-0.001,-0.0005,-0.0002,0.0,-0.0006,0.0004,0.0005,0.0042,0.0044,0.0038,0.0043,0.0046,0.0064,0.0065,0.0065,0.0066,0,0,0,0,0,0,0,-0.0026,-0.0027,-0.0031,-0.0016,-0.0014,-0.0011,-0.001,-0.0004,0.001,-0.0006,-0.0003,-0.0,0.0043,0.0037,0.004,0.0046,0.0064,0.0065,0.0066,0.0066,0.008,0.008,0,0,0,0,0,0,-0.0023,-0.0027,-0.0031,-0.0031,-0.0014,-0.0012,-0.0011,-0.0014,0.0008,0.0013,-0.0001,0.0001,0.0035,0.0039,0.0042,0.0061,0.0065,0.0066,0.0067,0.008,0.008,0.008,0,0,0,0,0,0,-0.0024,-0.0024,-0.0031,-0.0027,-0.0027,-0.0013,-0.0017,-0.0015,-0.0014,0.0012,0.0017,-0.0001,0.0036,0.0041,0.0046,0.0063,0.0067,0.0068,0.0081,0.008,0.008,0.0073,0,0,0,0,0,0,-0.0024,-0.0025,-0.003,-0.0027,-0.0027,-0.0042,-0.0018,-0.0016,-0.0013,-0.001,0.0013,0.0019,0.0037,0.0044,0.0046,0.0064,0.0068,0.0081,0.008,0.008,0.0074,0.0073,0.0072,0,0,0,0,0,-0.0023,-0.0039,-0.0031,-0.0031,-0.0035,-0.0043,-0.0043,-0.003,-0.0015,-0.0022,-0.0006,0.0019,0.0044,0.0044,0.0047,0.0066,0.0081,0.0081,0.008,0.0074,0.0073,0.0072,0,0,0,0,0,0,-0.0039,-0.0038,-0.0028,-0.0042,-0.0041,-0.0037,-0.0044,-0.0033,-0.0029,-0.0023,0.0006,0.0012,0.0025,0.0037,0.0036,0.0067,0.0071,0.0071,0.0065,0.0064,0.0063,0.0064,0.0069,0,0,0,0,0,-0.0046,-0.0058,-0.0051,-0.0063,-0.0063,-0.0054,-0.0056,-0.0047,-0.004,-0.0037,-0.0019,0.0002,0.0022,0.0036,0.0046,0.0055,0.0068,0.0072,0.0071,0.007,0.0072,0.0098,0.01,0.0078,0.0078,0.0078,0,0,-0.0055,-0.0056,-0.0062,-0.0067,-0.0066,-0.0075,-0.0052,-0.006,-0.0059,-0.0032,-0.003,-0.0008,0.002,0.0035,0.0044,0.0051,0.008,0.0069,0.0069,0.0071,0.0097,0.01,0.0102,0.0078,0.0078,0.0078,0,0,-0.0084,-0.0081,-0.01,-0.0101,-0.0101,-0.0096,-0.0097,-0.0093,-0.0081,-0.0086,-0.0051,-0.0019,-0.0012,0.0031,0.005,0.0048,0.0068,0.0051,0.0056,0.0081,0.0083,0.0085,0.0094,0.0097,0.0058,0.0058,0.0058,0,-0.0096,-0.0113,-0.0107,-0.0123,-0.0123,-0.0105,-0.012,-0.0112,-0.0105,-0.009,-0.0089,-0.0041,-0.0009,0.0039,0.0048,0.005,0.0053,0.0061,0.0081,0.0083,0.0086,0.0094,0.0098,0.0057,0.0057,0.0057,0.0057,0,-0.0134,-0.0146,-0.0158,-0.0168,-0.017,-0.0182,-0.0165,-0.0162,-0.0148,-0.0129,-0.0095,-0.0056,-0.0021,0.0003,0.0027,0.0072,0.0064,0.0072,0.0086,0.0088,0.0096,0.01,0.0057,0.0057,0.0057,0.0057,0,0,-0.0163,-0.0182,-0.0185,-0.0196,-0.0192,-0.0203,-0.0195,-0.0179,-0.0178,-0.0147,-0.0136,-0.0064,-0.0034,-0.0009,0.0036,0.0074,0.0104,0.008,0.0082,0.0092,0.014,0.0165,0.0172,0.011,0.0111,0.0111,0.0136,0,-0.0192,-0.0231,-0.0226,-0.0256,-0.0271,-0.0248,-0.025,-0.023,-0.0211,-0.0201,-0.0123,-0.0107,-0.0041,-0.003,0.0026,0.0073,0.0114,0.0096,0.0134,0.0135,0.0161,0.0178,0.0114,0.0139,0.014,0.0141,0.0141,0,-0.0224,-0.0245,-0.028,-0.03,-0.0305,-0.0319,-0.0313,-0.0313,-0.0274,-0.0259,-0.0203,-0.0167,-0.0086,-0.0054,0.0057,0.0035,0.0092,0.0134,0.0135,0.0166,0.0168,0.0139,0.0148,0.0148,0.0147,0.0147,0.0146,0,-0.0247,-0.028,-0.0309,-0.0315,-0.0336,-0.0342,-0.0348,-0.0326,-0.0332,-0.0296,-0.0307,-0.0209,-0.0186,-0.0089,0.0029,0.0027,0.0131,0.0134,0.0215,0.0216,0.0188,0.0185,0.0211,0.0211,0.0211,0.0211,0.0211,0,-0.0273,-0.0302,-0.0327,-0.0345,-0.039,-0.0381,-0.0417,-0.0407,-0.04,-0.0411,-0.0339,-0.0332,-0.0197,-0.0116,-0.0002,0.0126,0.0114,0.0221,0.0232,0.0182,0.0179,0.019,0.0187,0.0212,0.0212,0.0211,0.0211,0,-0.0303,-0.0314,-0.0361,-0.0391,-0.0406,-0.044,-0.048,-0.0502,-0.0489,-0.0506,-0.0502,-0.0432,-0.0318,-0.0169,-0.0023,0.0072,0.0197,0.0249,0.0179,0.0184,0.0264,0.026,0.0315,0.0316,0.0317,0.0318,0.0319,0,-0.0328,-0.0351,-0.0406,-0.0443,-0.0464,-0.0511,-0.0545,-0.0546,-0.0561,-0.0559,-0.0565,-0.0482,-0.0406,-0.0184,-0.0025,0.0193,0.0236,0.0276,0.0289,0.0274,0.0278,0.0273,0.0268,0.0321,0.0321,0.0321,0.0321,0,-0.0381,-0.0397,-0.0435,-0.0504,-0.0552,-0.0608,-0.0645,-0.0662,-0.0655,-0.0655,-0.0607,-0.0495,-0.0368,-0.0182,-0.0002,0.0156,0.0234,0.0288,0.0287,0.0299,0.0281,0.0284,0.0277,0.0325,0.0325,0.0324,0.0324,0,-0.0427,-0.0464,-0.0507,-0.0565,-0.0631,-0.0676,-0.0693,-0.0694,-0.0701,-0.0667,-0.0654,-0.0512,-0.0431,-0.0201,-0.0037,0.0128,0.0162,0.0192,0.0197,0.0194,0.0169,0.0129,0.0141,0,0,0,0,0,-0.0467,-0.0504,-0.0566,-0.0627,-0.0688,-0.0715,-0.0748,-0.0748,-0.0737,-0.0701,-0.0667,-0.0533,-0.0304,-0.0218,-0.0045,-0.002,0.0186,0.0183,0.0222,0.0346,0.0341,0.0337,0,0,0,0,0,0,-0.0501,-0.0556,-0.0572,-0.0658,-0.0702,-0.0765,-0.0781,-0.0773,-0.0732,-0.0701,-0.0569,-0.0511,-0.0273,-0.0394,-0.0049,-0.0003,0.0038,0.0294,0.0297,0.0348,0.0344,0.0341,0.0335,0,0,0,0,0]}]]